Sioux Falls, SD

9:15 PM CDT on March 28, 2017 (GMT -0500)
Foss

Weather History for KFSD - April, 2013

Change the Weather History Date:

Tuesday, April 30, 2013

  Actual Average Record
Temperature  
Mean Temperature 59 °F 53 °F  
Max Temperature 70 °F 65 °F 92 °F (1992)
Min Temperature 47 °F 40 °F 17 °F (1903)
Degree Days  
Heating Degree Days 6 13  
Month to date heating degree days 769 562  
Since 1 July heating degree days 7541 7407  
Cooling Degree Days 0 0  
Month to date cooling degree days 4 5  
Year to date cooling degree days 4 5  
Growing Degree Days 8 (Base 50)    
Moisture  
Dew Point 37 °F    
Average Humidity 49    
Maximum Humidity 77    
Minimum Humidity 20    
Precipitation  
Precipitation 0.01 in 0.10 in 1.87 in (1937)
Month to date precipitation 3.13 3.01  
Year to date precipitation 5.36 5.93  
Snow  
Snow 0.00 in 0.10 in T in (2005)
Month to date snowfall 14.8 4.6  
Since 1 July snowfall 41.8 44.5  
Snow Depth 0.00 in    
Sea Level Pressure  
Sea Level Pressure 29.67 in    
Wind  
Wind Speed 16 mph (NW)    
Max Wind Speed 28 mph    
Max Gust Speed 33 mph    
Visibility 10 miles    
Events Rain    
T = Trace of Precipitation, MM = Missing Value Source: NWS Daily Summary

Daily Weather History Graph

Daily Weather History Graph

Search for Another Location

Airport or City:

Trip Planner

Search our weather history database for the weather conditions in past years. The results will help you decide how hot, cold, wet, or windy it might be!

Date:

Astronomy

Apr. 30, 2013 Rise Set
Actual Time 6:20 AM CDT 8:28 PM CDT
Civil Twilight 5:49 AM CDT 8:59 PM CDT
Nautical Twilight 5:10 AM CDT 9:38 PM CDT
Astronomical Twilight 4:28 AM CDT 10:21 PM CDT
Moon 12:54 AM CDT (4/30) 10:49 AM CDT (4/30)
Length of Visible Light 15h 10m
Length of Day
14h 07m
Waning Gibbous, 70% of the Moon is Illuminated
Apr 30
Waning Gibbous
May 2
Last Quarter
May 9
New
May 17
First Quarter
May 24
Full

Hourly Weather History & Observations

Time (CDT) Temp. Dew Point Humidity Pressure Visibility Wind Dir Wind Speed Gust Speed Precip Events Conditions
12:56 AM 69.1 °F 45.0 °F 42% 29.37 in 10.0 mi South 16.1 mph - N/A   Clear
1:56 AM 68.0 °F 46.9 °F 47% 29.36 in 10.0 mi South 16.1 mph - N/A   Clear
2:56 AM 66.0 °F 48.0 °F 52% 29.34 in 10.0 mi South 12.7 mph - N/A   Clear
3:56 AM 64.9 °F 50.0 °F 58% 29.36 in 10.0 mi SSW 11.5 mph - N/A   Clear
4:44 AM 64.4 °F 51.8 °F 64% 29.42 in 10.0 mi WSW 6.9 mph - N/A   Clear
4:56 AM 63.0 °F 50.0 °F 63% 29.41 in 10.0 mi West 12.7 mph 20.7 mph N/A   Clear
5:56 AM 51.1 °F 43.0 °F 74% 29.47 in 10.0 mi NW 19.6 mph - N/A   Clear
6:56 AM 52.0 °F 44.1 °F 74% 29.55 in 10.0 mi NNW 18.4 mph 25.3 mph N/A   Clear
7:56 AM 52.0 °F 44.1 °F 74% 29.60 in 10.0 mi NW 17.3 mph 26.5 mph N/A   Clear
8:56 AM 54.0 °F 43.0 °F 66% 29.64 in 10.0 mi NW 23.0 mph 29.9 mph N/A   Clear
9:56 AM 55.0 °F 43.0 °F 64% 29.66 in 10.0 mi NW 17.3 mph 25.3 mph N/A   Clear
10:56 AM 57.9 °F 39.9 °F 51% 29.70 in 10.0 mi NW 17.3 mph - N/A   Clear
11:56 AM 60.1 °F 37.0 °F 42% 29.72 in 10.0 mi NNW 15.0 mph - N/A   Partly Cloudy
12:56 PM 63.0 °F 28.9 °F 28% 29.73 in 10.0 mi NNW 18.4 mph 23.0 mph N/A   Clear
1:56 PM 62.1 °F 23.0 °F 22% 29.74 in 10.0 mi NW 15.0 mph 23.0 mph N/A   Clear
2:56 PM 64.9 °F 23.0 °F 20% 29.77 in 10.0 mi NW 18.4 mph 23.0 mph N/A   Clear
3:56 PM 64.9 °F 23.0 °F 20% 29.81 in 10.0 mi WNW 12.7 mph 21.9 mph N/A   Partly Cloudy
4:56 PM 64.0 °F 26.1 °F 24% 29.83 in 10.0 mi North 8.1 mph - N/A   Partly Cloudy
5:56 PM 63.0 °F 24.1 °F 23% 29.87 in 10.0 mi NNW 15.0 mph - N/A   Scattered Clouds
6:56 PM 62.1 °F 26.1 °F 25% 29.87 in 10.0 mi NNW 15.0 mph - N/A   Overcast
7:56 PM 57.9 °F 27.0 °F 31% 29.88 in 10.0 mi NNW 16.1 mph - N/A   Scattered Clouds
8:56 PM 54.0 °F 32.0 °F 43% 29.91 in 10.0 mi NNW 19.6 mph 28.8 mph N/A   Partly Cloudy
9:56 PM 53.1 °F 30.9 °F 43% 29.96 in 10.0 mi NNW 17.3 mph 21.9 mph N/A   Partly Cloudy
10:56 PM 53.1 °F 32.0 °F 45% 29.97 in 10.0 mi North 17.3 mph 21.9 mph N/A   Overcast
11:56 PM 51.1 °F 34.0 °F 52% 30.04 in 10.0 mi NNW 9.2 mph - 0.00 in Rain Light Rain